owner,sensor,date,latitude,longitude,vertical_datum,sea_water_practical_salinity,qcFlag 
SCCF RECON,ioos:station:SCCF:12:1,2012-09-01T00:00:00Z,26.4966,-82.1479,1.887,29.46,1111122 
SCCF RECON,ioos:station:SCCF:12:1,2012-09-01T01:00:00Z,26.4966,-82.1479,1.86,29.41,1111122 
SCCF RECON,ioos:station:SCCF:12:1,2012-09-01T02:00:00Z,26.4966,-82.1479,1.961,29.98,1111122 
SCCF RECON,ioos:station:SCCF:12:1,2012-09-01T03:00:00Z,26.4966,-82.1479,2.123,29.8,1111122 
SCCF RECON,ioos:station:SCCF:12:1,2012-09-01T04:00:00Z,26.4966,-82.1479,2.261,30.13,1111122 
SCCF RECON,ioos:station:SCCF:12:1,2012-09-01T05:00:00Z,26.4966,-82.1479,2.37,29.97,1111122 
SCCF RECON,ioos:station:SCCF:12:1,2012-09-01T06:00:00Z,26.4966,-82.1479,2.43,29.06,1111122 
SCCF RECON,ioos:station:SCCF:12:1,2012-09-01T07:00:00Z,26.4966,-82.1479,2.417,28.96,1111122 
SCCF RECON,ioos:station:SCCF:12:1,2012-09-01T08:00:00Z,26.4966,-82.1479,2.33,29.12,1111122 
SCCF RECON,ioos:station:SCCF:12:1,2012-09-01T09:00:00Z,26.4966,-82.1479,2.2,28.48,1111122 
SCCF RECON,ioos:station:SCCF:12:1,2012-09-01T10:00:00Z,26.4966,-82.1479,2.09,28.19,1111122 
SCCF RECON,ioos:station:SCCF:12:1,2012-09-01T11:00:00Z,26.4966,-82.1479,2.01,27.99,1111122 
SCCF RECON,ioos:station:SCCF:12:1,2012-09-01T12:00:00Z,26.4966,-82.1479,1.966,28.4,1111122 
SCCF RECON,ioos:station:SCCF:12:1,2012-09-01T13:00:00Z,26.4966,-82.1479,1.98,28.21,1111122 
SCCF RECON,ioos:station:SCCF:12:1,2012-09-01T14:00:00Z,26.4966,-82.1479,2.08,28.27,1111122 
SCCF RECON,ioos:station:SCCF:12:1,2012-09-01T15:00:00Z,26.4966,-82.1479,2.242,28.57,1111122 
SCCF RECON,ioos:station:SCCF:12:1,2012-09-01T16:00:00Z,26.4966,-82.1479,2.405,28.74,1111122 
SCCF RECON,ioos:station:SCCF:12:1,2012-09-01T17:00:00Z,26.4966,-82.1479,2.507,28.78,1111122 
SCCF RECON,ioos:station:SCCF:12:1,2012-09-01T18:00:00Z,26.4966,-82.1479,2.55,28.73,1111122 
SCCF RECON,ioos:station:SCCF:12:1,2012-09-01T19:00:00Z,26.4966,-82.1479,2.54,28.31,1111122 
SCCF RECON,ioos:station:SCCF:12:1,2012-09-01T20:00:00Z,26.4966,-82.1479,2.457,28.56,1111122 
SCCF RECON,ioos:station:SCCF:12:1,2012-09-01T21:00:00Z,26.4966,-82.1479,2.332,28.39,1111122 
SCCF RECON,ioos:station:SCCF:12:1,2012-09-01T22:00:00Z,26.4966,-82.1479,2.198,26.95,1111122 
SCCF RECON,ioos:station:SCCF:12:1,2012-09-01T23:00:00Z,26.4966,-82.1479,2.095,26.48,1111122 
SCCF RECON,ioos:station:SCCF:12:1,2012-09-02T00:00:00Z,26.4966,-82.1479,2.007,26.6,1111122 
SCCF RECON,ioos:station:SCCF:12:1,2012-09-02T01:00:00Z,26.4966,-82.1479,1.956,26.73,1111122 
SCCF RECON,ioos:station:SCCF:12:1,2012-09-02T02:00:00Z,26.4966,-82.1479,2.01,27.38,1111122 
SCCF RECON,ioos:station:SCCF:12:1,2012-09-02T03:00:00Z,26.4966,-82.1479,2.119,28.75,1111122 
SCCF RECON,ioos:station:SCCF:12:1,2012-09-02T04:00:00Z,26.4966,-82.1479,2.262,28.68,1111122 
SCCF RECON,ioos:station:SCCF:12:1,2012-09-02T05:00:00Z,26.4966,-82.1479,2.359,28.75,1111122 
SCCF RECON,ioos:station:SCCF:12:1,2012-09-02T06:00:00Z,26.4966,-82.1479,2.42,28.3,1111122 
SCCF RECON,ioos:station:SCCF:12:1,2012-09-02T07:00:00Z,26.4966,-82.1479,2.416,27.29,1111122 
SCCF RECON,ioos:station:SCCF:12:1,2012-09-02T08:00:00Z,26.4966,-82.1479,2.36,27.04,1111122 
SCCF RECON,ioos:station:SCCF:12:1,2012-09-02T09:00:00Z,26.4966,-82.1479,2.296,27.22,1111122 
SCCF RECON,ioos:station:SCCF:12:1,2012-09-02T10:00:00Z,26.4966,-82.1479,2.19,26.55,1111122 
SCCF RECON,ioos:station:SCCF:12:1,2012-09-02T11:00:00Z,26.4966,-82.1479,2.078,26.36,1111122 
SCCF RECON,ioos:station:SCCF:12:1,2012-09-02T12:00:00Z,26.4966,-82.1479,1.979,26.2,1111122 
SCCF RECON,ioos:station:SCCF:12:1,2012-09-02T13:00:00Z,26.4966,-82.1479,1.92,26.17,1111122 
SCCF RECON,ioos:station:SCCF:12:1,2012-09-02T14:00:00Z,26.4966,-82.1479,1.95,26.48,1111122 
SCCF RECON,ioos:station:SCCF:12:1,2012-09-02T15:00:00Z,26.4966,-82.1479,2.1,26.89,1111122 
SCCF RECON,ioos:station:SCCF:12:1,2012-09-02T16:00:00Z,26.4966,-82.1479,2.279,27.35,1111122 
SCCF RECON,ioos:station:SCCF:12:1,2012-09-02T17:00:00Z,26.4966,-82.1479,2.418,27.35,1111122 
SCCF RECON,ioos:station:SCCF:12:1,2012-09-02T18:00:00Z,26.4966,-82.1479,2.505,27.34,1111122 
SCCF RECON,ioos:station:SCCF:12:1,2012-09-02T19:00:00Z,26.4966,-82.1479,2.527,27.15,1111122 
SCCF RECON,ioos:station:SCCF:12:1,2012-09-02T20:00:00Z,26.4966,-82.1479,2.48,26.74,1111122 
SCCF RECON,ioos:station:SCCF:12:1,2012-09-02T21:00:00Z,26.4966,-82.1479,2.389,26.7,1111122 
SCCF RECON,ioos:station:SCCF:12:1,2012-09-02T22:00:00Z,26.4966,-82.1479,2.27,26.71,1111122 
SCCF RECON,ioos:station:SCCF:12:1,2012-09-02T23:00:00Z,26.4966,-82.1479,2.164,26.23,1111122 
SCCF RECON,ioos:station:SCCF:12:1,2012-09-03T00:00:00Z,26.4966,-82.1479,2.08,25.85,1111122 
SCCF RECON,ioos:station:SCCF:12:1,2012-09-03T01:00:00Z,26.4966,-82.1479,2.014,25.71,1111122 
SCCF RECON,ioos:station:SCCF:12:1,2012-09-03T02:00:00Z,26.4966,-82.1479,2.039,26.17,1111122 
SCCF RECON,ioos:station:SCCF:12:1,2012-09-03T03:00:00Z,26.4966,-82.1479,2.12,26.49,1111122 
SCCF RECON,ioos:station:SCCF:12:1,2012-09-03T04:00:00Z,26.4966,-82.1479,2.242,27.14,1111122 
SCCF RECON,ioos:station:SCCF:12:1,2012-09-03T05:00:00Z,26.4966,-82.1479,2.364,27.72,1111122 
SCCF RECON,ioos:station:SCCF:12:1,2012-09-03T06:00:00Z,26.4966,-82.1479,2.44,27.31,1111122 
SCCF RECON,ioos:station:SCCF:12:1,2012-09-03T07:00:00Z,26.4966,-82.1479,2.469,26.91,1111122 
SCCF RECON,ioos:station:SCCF:12:1,2012-09-03T08:00:00Z,26.4966,-82.1479,2.44,26.32,1111122 
SCCF RECON,ioos:station:SCCF:12:1,2012-09-03T09:00:00Z,26.4966,-82.1479,2.38,26.11,1111122 
SCCF RECON,ioos:station:SCCF:12:1,2012-09-03T10:00:00Z,26.4966,-82.1479,2.29,25.75,1111122 
SCCF RECON,ioos:station:SCCF:12:1,2012-09-03T11:00:00Z,26.4966,-82.1479,2.19,25.62,1111122 
SCCF RECON,ioos:station:SCCF:12:1,2012-09-03T12:00:00Z,26.4966,-82.1479,2.09,25.32,1111122 
SCCF RECON,ioos:station:SCCF:12:1,2012-09-03T13:00:00Z,26.4966,-82.1479,2.01,25.34,1111122 
SCCF RECON,ioos:station:SCCF:12:1,2012-09-03T14:00:00Z,26.4966,-82.1479,1.966,25.47,1111122 
SCCF RECON,ioos:station:SCCF:12:1,2012-09-03T15:00:00Z,26.4966,-82.1479,2.031,26.16,1111122 
SCCF RECON,ioos:station:SCCF:12:1,2012-09-03T16:00:00Z,26.4966,-82.1479,2.189,26.26,1111122 
SCCF RECON,ioos:station:SCCF:12:1,2012-09-03T17:00:00Z,26.4966,-82.1479,2.353,26.73,1111122 
SCCF RECON,ioos:station:SCCF:12:1,2012-09-03T18:00:00Z,26.4966,-82.1479,2.458,26.77,1111122 
SCCF RECON,ioos:station:SCCF:12:1,2012-09-03T19:00:00Z,26.4966,-82.1479,2.512,26.67,1111122 
SCCF RECON,ioos:station:SCCF:12:1,2012-09-03T20:00:00Z,26.4966,-82.1479,2.5,26.52,1111122 
SCCF RECON,ioos:station:SCCF:12:1,2012-09-03T21:00:00Z,26.4966,-82.1479,2.423,26.02,1111122 
SCCF RECON,ioos:station:SCCF:12:1,2012-09-03T22:00:00Z,26.4966,-82.1479,2.318,26.08,1111122 
SCCF RECON,ioos:station:SCCF:12:1,2012-09-03T23:00:00Z,26.4966,-82.1479,2.225,25.74,1111122 
SCCF RECON,ioos:station:SCCF:12:1,2012-09-04T00:00:00Z,26.4966,-82.1479,2.142,25.87,1111122 
SCCF RECON,ioos:station:SCCF:12:1,2012-09-04T01:00:00Z,26.4966,-82.1479,2.088,26.28,1111122 
SCCF RECON,ioos:station:SCCF:12:1,2012-09-04T02:00:00Z,26.4966,-82.1479,2.088,27.2,1111122 
SCCF RECON,ioos:station:SCCF:12:1,2012-09-04T03:00:00Z,26.4966,-82.1479,2.13,28.3,1111122 
SCCF RECON,ioos:station:SCCF:12:1,2012-09-04T04:00:00Z,26.4966,-82.1479,2.217,28.46,1111122 
SCCF RECON,ioos:station:SCCF:12:1,2012-09-04T05:00:00Z,26.4966,-82.1479,2.33,28.45,1111122 
SCCF RECON,ioos:station:SCCF:12:1,2012-09-04T06:00:00Z,26.4966,-82.1479,2.437,28.4,1111122 
SCCF RECON,ioos:station:SCCF:12:1,2012-09-04T07:00:00Z,26.4966,-82.1479,2.483,28.46,1111122 
SCCF RECON,ioos:station:SCCF:12:1,2012-09-04T08:00:00Z,26.4966,-82.1479,2.489,28.34,1111122 
SCCF RECON,ioos:station:SCCF:12:1,2012-09-04T09:00:00Z,26.4966,-82.1479,2.439,27.1,1111122 
SCCF RECON,ioos:station:SCCF:12:1,2012-09-04T10:00:00Z,26.4966,-82.1479,2.33,27.58,1111122 
SCCF RECON,ioos:station:SCCF:12:1,2012-09-04T11:00:00Z,26.4966,-82.1479,2.22,27.7,1111122 
SCCF RECON,ioos:station:SCCF:12:1,2012-09-04T12:00:00Z,26.4966,-82.1479,2.104,28.01,1111122 
SCCF RECON,ioos:station:SCCF:12:1,2012-09-04T13:00:00Z,26.4966,-82.1479,2.0,28.09,1111122 
SCCF RECON,ioos:station:SCCF:12:1,2012-09-04T14:00:00Z,26.4966,-82.1479,1.931,27.5,1111122 
SCCF RECON,ioos:station:SCCF:12:1,2012-09-04T15:00:00Z,26.4966,-82.1479,1.94,28.34,1111122 
SCCF RECON,ioos:station:SCCF:12:1,2012-09-04T16:00:00Z,26.4966,-82.1479,2.04,28.49,1111122 
SCCF RECON,ioos:station:SCCF:12:1,2012-09-04T17:00:00Z,26.4966,-82.1479,2.18,28.51,1111122 
SCCF RECON,ioos:station:SCCF:12:1,2012-09-04T18:00:00Z,26.4966,-82.1479,2.32,28.63,1111122 
SCCF RECON,ioos:station:SCCF:12:1,2012-09-04T19:00:00Z,26.4966,-82.1479,2.409,28.6,1111122 
SCCF RECON,ioos:station:SCCF:12:1,2012-09-04T20:00:00Z,26.4966,-82.1479,2.43,27.97,1111122 
SCCF RECON,ioos:station:SCCF:12:1,2012-09-04T21:00:00Z,26.4966,-82.1479,2.41,27.77,1111122 
SCCF RECON,ioos:station:SCCF:12:1,2012-09-04T22:00:00Z,26.4966,-82.1479,2.35,27.64,1111122 
SCCF RECON,ioos:station:SCCF:12:1,2012-09-04T23:00:00Z,26.4966,-82.1479,2.29,27.19,1111122 
SCCF RECON,ioos:station:SCCF:12:1,2012-09-05T00:00:00Z,26.4966,-82.1479,2.23,27.01,1111122 
SCCF RECON,ioos:station:SCCF:12:1,2012-09-05T01:00:00Z,26.4966,-82.1479,2.2,26.74,1111122 
SCCF RECON,ioos:station:SCCF:12:1,2012-09-05T02:00:00Z,26.4966,-82.1479,2.18,27.95,1111122 
SCCF RECON,ioos:station:SCCF:12:1,2012-09-05T03:00:00Z,26.4966,-82.1479,2.19,28.99,1111122 
SCCF RECON,ioos:station:SCCF:12:1,2012-09-05T04:00:00Z,26.4966,-82.1479,2.23,29.96,1111122 
SCCF RECON,ioos:station:SCCF:12:1,2012-09-05T05:00:00Z,26.4966,-82.1479,2.31,29.62,1111122 
SCCF RECON,ioos:station:SCCF:12:1,2012-09-05T06:00:00Z,26.4966,-82.1479,2.41,29.49,1111122 
SCCF RECON,ioos:station:SCCF:12:1,2012-09-05T07:00:00Z,26.4966,-82.1479,2.5,29.18,1111122 
SCCF RECON,ioos:station:SCCF:12:1,2012-09-05T08:00:00Z,26.4966,-82.1479,2.53,28.88,1111122 
SCCF RECON,ioos:station:SCCF:12:1,2012-09-05T09:00:00Z,26.4966,-82.1479,2.493,29.18,1111122 
SCCF RECON,ioos:station:SCCF:12:1,2012-09-05T10:00:00Z,26.4966,-82.1479,2.42,27.57,1111122 
SCCF RECON,ioos:station:SCCF:12:1,2012-09-05T11:00:00Z,26.4966,-82.1479,2.329,27.17,1111122 
SCCF RECON,ioos:station:SCCF:12:1,2012-09-05T12:00:00Z,26.4966,-82.1479,2.21,26.72,1111122 
SCCF RECON,ioos:station:SCCF:12:1,2012-09-05T13:00:00Z,26.4966,-82.1479,2.109,26.5,1111122 
SCCF RECON,ioos:station:SCCF:12:1,2012-09-05T14:00:00Z,26.4966,-82.1479,2.011,26.58,1111122 
SCCF RECON,ioos:station:SCCF:12:1,2012-09-05T15:00:00Z,26.4966,-82.1479,1.94,26.73,1111122 
SCCF RECON,ioos:station:SCCF:12:1,2012-09-05T16:00:00Z,26.4966,-82.1479,1.96,28.71,1111122 
SCCF RECON,ioos:station:SCCF:12:1,2012-09-05T17:00:00Z,26.4966,-82.1479,2.08,28.38,1111122 
SCCF RECON,ioos:station:SCCF:12:1,2012-09-05T18:00:00Z,26.4966,-82.1479,2.2,27.51,1111122 
SCCF RECON,ioos:station:SCCF:12:1,2012-09-05T19:00:00Z,26.4966,-82.1479,2.29,26.96,1111122 
SCCF RECON,ioos:station:SCCF:12:1,2012-09-05T20:00:00Z,26.4966,-82.1479,2.34,27.02,1111122 
SCCF RECON,ioos:station:SCCF:12:1,2012-09-05T21:00:00Z,26.4966,-82.1479,2.35,26.69,1111122 
SCCF RECON,ioos:station:SCCF:12:1,2012-09-05T22:00:00Z,26.4966,-82.1479,2.35,26.46,1111122 
SCCF RECON,ioos:station:SCCF:12:1,2012-09-05T23:00:00Z,26.4966,-82.1479,2.32,27.1,1111122 
SCCF RECON,ioos:station:SCCF:12:1,2012-09-06T00:00:00Z,26.4966,-82.1479,2.28,26.87,1111122 
SCCF RECON,ioos:station:SCCF:12:1,2012-09-06T01:00:00Z,26.4966,-82.1479,2.223,27.05,1111122 
SCCF RECON,ioos:station:SCCF:12:1,2012-09-06T02:00:00Z,26.4966,-82.1479,2.182,26.81,1111122 
SCCF RECON,ioos:station:SCCF:12:1,2012-09-06T03:00:00Z,26.4966,-82.1479,2.17,26.54,1111122 
SCCF RECON,ioos:station:SCCF:12:1,2012-09-06T04:00:00Z,26.4966,-82.1479,2.24,27.21,1111122 
SCCF RECON,ioos:station:SCCF:12:1,2012-09-06T05:00:00Z,26.4966,-82.1479,2.29,27.47,1111122 
SCCF RECON,ioos:station:SCCF:12:1,2012-09-06T06:00:00Z,26.4966,-82.1479,2.33,28.09,1111122 
SCCF RECON,ioos:station:SCCF:12:1,2012-09-06T07:00:00Z,26.4966,-82.1479,2.42,26.93,1111122 
SCCF RECON,ioos:station:SCCF:12:1,2012-09-06T08:00:00Z,26.4966,-82.1479,2.47,26.39,1111122 
SCCF RECON,ioos:station:SCCF:12:1,2012-09-06T09:00:00Z,26.4966,-82.1479,2.49,26.86,1111122 
SCCF RECON,ioos:station:SCCF:12:1,2012-09-06T10:00:00Z,26.4966,-82.1479,2.461,26.69,1111122 
SCCF RECON,ioos:station:SCCF:12:1,2012-09-06T11:00:00Z,26.4966,-82.1479,2.39,26.44,1111122 
SCCF RECON,ioos:station:SCCF:12:1,2012-09-06T12:00:00Z,26.4966,-82.1479,1.0,-9999.0,1111122 
SCCF RECON,ioos:station:SCCF:12:1,2012-09-06T13:00:00Z,26.4966,-82.1479,2.21,26.2,1111122 
SCCF RECON,ioos:station:SCCF:12:1,2012-09-06T14:00:00Z,26.4966,-82.1479,2.107,26.26,1111122 
SCCF RECON,ioos:station:SCCF:12:1,2012-09-06T15:00:00Z,26.4966,-82.1479,2.03,26.32,1111122 
SCCF RECON,ioos:station:SCCF:12:1,2012-09-06T16:00:00Z,26.4966,-82.1479,1.971,26.17,1111122 
SCCF RECON,ioos:station:SCCF:12:1,2012-09-06T17:00:00Z,26.4966,-82.1479,1.0,-9999.0,1111122 
SCCF RECON,ioos:station:SCCF:12:1,2012-09-06T18:00:00Z,26.4966,-82.1479,2.08,27.06,1111122 
SCCF RECON,ioos:station:SCCF:12:1,2012-09-06T19:00:00Z,26.4966,-82.1479,2.18,26.69,1111122 
SCCF RECON,ioos:station:SCCF:12:1,2012-09-06T20:00:00Z,26.4966,-82.1479,1.0,-9999.0,1111122 
SCCF RECON,ioos:station:SCCF:12:1,2012-09-06T21:00:00Z,26.4966,-82.1479,2.3,26.44,1111122 
SCCF RECON,ioos:station:SCCF:12:1,2012-09-06T22:00:00Z,26.4966,-82.1479,1.0,-9999.0,1111122 
SCCF RECON,ioos:station:SCCF:12:1,2012-09-06T23:00:00Z,26.4966,-82.1479,2.29,26.39,1111122 
SCCF RECON,ioos:station:SCCF:12:1,2012-09-07T00:00:00Z,26.4966,-82.1479,1.0,-9999.0,1111122 
SCCF RECON,ioos:station:SCCF:12:1,2012-09-07T01:00:00Z,26.4966,-82.1479,2.24,27.16,1111122 
SCCF RECON,ioos:station:SCCF:12:1,2012-09-07T02:00:00Z,26.4966,-82.1479,2.21,27.59,1111122 
SCCF RECON,ioos:station:SCCF:12:1,2012-09-07T03:00:00Z,26.4966,-82.1479,1.0,-9999.0,1111122 
SCCF RECON,ioos:station:SCCF:12:1,2012-09-07T04:00:00Z,26.4966,-82.1479,2.21,27.09,1111122 
SCCF RECON,ioos:station:SCCF:12:1,2012-09-07T05:00:00Z,26.4966,-82.1479,1.0,-9999.0,1111122 
SCCF RECON,ioos:station:SCCF:12:1,2012-09-07T06:00:00Z,26.4966,-82.1479,1.0,-9999.0,1111122 
SCCF RECON,ioos:station:SCCF:12:1,2012-09-07T07:00:00Z,26.4966,-82.1479,2.36,26.98,1111122 
SCCF RECON,ioos:station:SCCF:12:1,2012-09-07T08:00:00Z,26.4966,-82.1479,1.0,-9999.0,1111122 
SCCF RECON,ioos:station:SCCF:12:1,2012-09-07T09:00:00Z,26.4966,-82.1479,1.0,-9999.0,1111122 
SCCF RECON,ioos:station:SCCF:12:1,2012-09-07T10:00:00Z,26.4966,-82.1479,1.0,-9999.0,1111122 
SCCF RECON,ioos:station:SCCF:12:1,2012-09-07T11:00:00Z,26.4966,-82.1479,1.0,-9999.0,1111122 
SCCF RECON,ioos:station:SCCF:12:1,2012-09-07T12:00:00Z,26.4966,-82.1479,2.37,26.74,1111122 
SCCF RECON,ioos:station:SCCF:12:1,2012-09-07T13:00:00Z,26.4966,-82.1479,1.0,-9999.0,1111122 
SCCF RECON,ioos:station:SCCF:12:1,2012-09-07T14:00:00Z,26.4966,-82.1479,1.0,-9999.0,1111122 
SCCF RECON,ioos:station:SCCF:12:1,2012-09-07T15:00:00Z,26.4966,-82.1479,1.0,-9999.0,1111122 
SCCF RECON,ioos:station:SCCF:12:1,2012-09-07T16:00:00Z,26.4966,-82.1479,1.0,-9999.0,1111122 
SCCF RECON,ioos:station:SCCF:12:1,2012-09-07T17:00:00Z,26.4966,-82.1479,1.0,-9999.0,1111122 
SCCF RECON,ioos:station:SCCF:12:1,2012-09-07T18:00:00Z,26.4966,-82.1479,1.0,-9999.0,1111122 
SCCF RECON,ioos:station:SCCF:12:1,2012-09-07T19:00:00Z,26.4966,-82.1479,1.0,-9999.0,1111122 
SCCF RECON,ioos:station:SCCF:12:1,2012-09-07T20:00:00Z,26.4966,-82.1479,1.0,-9999.0,1111122 
SCCF RECON,ioos:station:SCCF:12:1,2012-09-07T21:00:00Z,26.4966,-82.1479,1.0,-9999.0,1111122 
SCCF RECON,ioos:station:SCCF:12:1,2012-09-07T22:00:00Z,26.4966,-82.1479,1.0,-9999.0,1111122 
SCCF RECON,ioos:station:SCCF:12:1,2012-09-07T23:00:00Z,26.4966,-82.1479,1.0,-9999.0,1111122 
SCCF RECON,ioos:station:SCCF:12:1,2012-09-08T00:00:00Z,26.4966,-82.1479,1.0,-9999.0,1111122 
SCCF RECON,ioos:station:SCCF:12:1,2012-09-08T01:00:00Z,26.4966,-82.1479,1.0,-9999.0,1111122 
SCCF RECON,ioos:station:SCCF:12:1,2012-09-08T02:00:00Z,26.4966,-82.1479,1.0,-9999.0,1111122 
SCCF RECON,ioos:station:SCCF:12:1,2012-09-08T03:00:00Z,26.4966,-82.1479,1.0,-9999.0,1111122 
SCCF RECON,ioos:station:SCCF:12:1,2012-09-08T04:00:00Z,26.4966,-82.1479,1.0,-9999.0,1111122 
SCCF RECON,ioos:station:SCCF:12:1,2012-09-08T05:00:00Z,26.4966,-82.1479,1.0,-9999.0,1111122 
SCCF RECON,ioos:station:SCCF:12:1,2012-09-08T06:00:00Z,26.4966,-82.1479,1.0,-9999.0,1111122 
SCCF RECON,ioos:station:SCCF:12:1,2012-09-08T07:00:00Z,26.4966,-82.1479,1.0,-9999.0,1111122 
SCCF RECON,ioos:station:SCCF:12:1,2012-09-08T08:00:00Z,26.4966,-82.1479,1.0,-9999.0,1111122 
SCCF RECON,ioos:station:SCCF:12:1,2012-09-08T09:00:00Z,26.4966,-82.1479,1.0,-9999.0,1111122 
SCCF RECON,ioos:station:SCCF:12:1,2012-09-08T10:00:00Z,26.4966,-82.1479,1.0,-9999.0,1111122 
SCCF RECON,ioos:station:SCCF:12:1,2012-09-08T11:00:00Z,26.4966,-82.1479,1.0,-9999.0,1111122 
SCCF RECON,ioos:station:SCCF:12:1,2012-09-08T12:00:00Z,26.4966,-82.1479,1.0,-9999.0,1111122 
SCCF RECON,ioos:station:SCCF:12:1,2012-09-08T13:00:00Z,26.4966,-82.1479,2.39,27.61,1111122 
SCCF RECON,ioos:station:SCCF:12:1,2012-09-08T14:00:00Z,26.4966,-82.1479,2.294,27.29,1111122 
SCCF RECON,ioos:station:SCCF:12:1,2012-09-08T16:00:00Z,26.4966,-82.1479,2.121,27.64,1111122 
SCCF RECON,ioos:station:SCCF:12:1,2012-09-08T17:00:00Z,26.4966,-82.1479,2.052,28.01,1111122 
SCCF RECON,ioos:station:SCCF:12:1,2012-09-08T19:00:00Z,26.4966,-82.1479,2.006,28.07,1111122 
SCCF RECON,ioos:station:SCCF:12:1,2012-09-08T21:00:00Z,26.4966,-82.1479,2.131,27.8,1111122 
SCCF RECON,ioos:station:SCCF:12:1,2012-09-08T23:00:00Z,26.4966,-82.1479,2.259,28.84,1111122 
SCCF RECON,ioos:station:SCCF:12:1,2012-09-09T01:00:00Z,26.4966,-82.1479,2.298,28.13,1111122 
SCCF RECON,ioos:station:SCCF:12:1,2012-09-09T03:00:00Z,26.4966,-82.1479,2.32,27.62,1111122 
SCCF RECON,ioos:station:SCCF:12:1,2012-09-09T05:00:00Z,26.4966,-82.1479,2.33,27.74,1111122 
SCCF RECON,ioos:station:SCCF:12:1,2012-09-09T07:00:00Z,26.4966,-82.1479,2.39,27.78,1111122 
SCCF RECON,ioos:station:SCCF:12:1,2012-09-09T09:00:00Z,26.4966,-82.1479,2.46,28.46,1111122 
SCCF RECON,ioos:station:SCCF:12:1,2012-09-09T11:00:00Z,26.4966,-82.1479,1.0,-9999.0,1111122 
SCCF RECON,ioos:station:SCCF:12:1,2012-09-09T12:00:00Z,26.4966,-82.1479,1.0,-9999.0,1111122 
SCCF RECON,ioos:station:SCCF:12:1,2012-09-09T13:00:00Z,26.4966,-82.1479,1.0,-9999.0,1111122 
SCCF RECON,ioos:station:SCCF:12:1,2012-09-09T14:00:00Z,26.4966,-82.1479,2.418,28.12,1111122 
SCCF RECON,ioos:station:SCCF:12:1,2012-09-18T17:00:00Z,26.4966,-82.1479,2.336,26.0,1111122 
SCCF RECON,ioos:station:SCCF:12:1,2012-09-18T18:00:00Z,26.4966,-82.1479,2.43,25.95,1111122 
SCCF RECON,ioos:station:SCCF:12:1,2012-09-18T19:00:00Z,26.4966,-82.1479,2.495,25.98,1111122 
SCCF RECON,ioos:station:SCCF:12:1,2012-09-18T20:00:00Z,26.4966,-82.1479,2.523,26.04,1111122 
SCCF RECON,ioos:station:SCCF:12:1,2012-09-18T21:00:00Z,26.4966,-82.1479,2.5,27.11,1111122 
SCCF RECON,ioos:station:SCCF:12:1,2012-09-18T22:00:00Z,26.4966,-82.1479,2.473,27.37,1111122 
SCCF RECON,ioos:station:SCCF:12:1,2012-09-18T23:00:00Z,26.4966,-82.1479,2.35,27.08,1111122 
SCCF RECON,ioos:station:SCCF:12:1,2012-09-19T00:00:00Z,26.4966,-82.1479,2.231,27.39,1111122 
SCCF RECON,ioos:station:SCCF:12:1,2012-09-19T01:00:00Z,26.4966,-82.1479,2.14,27.76,1111122 
SCCF RECON,ioos:station:SCCF:12:1,2012-09-19T02:00:00Z,26.4966,-82.1479,2.121,26.89,1111122 
SCCF RECON,ioos:station:SCCF:12:1,2012-09-19T03:00:00Z,26.4966,-82.1479,2.224,26.81,1111122 
SCCF RECON,ioos:station:SCCF:12:1,2012-09-19T04:00:00Z,26.4966,-82.1479,2.36,26.86,1111122 
SCCF RECON,ioos:station:SCCF:12:1,2012-09-19T05:00:00Z,26.4966,-82.1479,2.45,26.72,1111122 
SCCF RECON,ioos:station:SCCF:12:1,2012-09-19T06:00:00Z,26.4966,-82.1479,2.58,26.48,1111122 
SCCF RECON,ioos:station:SCCF:12:1,2012-09-19T07:00:00Z,26.4966,-82.1479,2.65,26.61,1111122 
SCCF RECON,ioos:station:SCCF:12:1,2012-09-19T08:00:00Z,26.4966,-82.1479,2.64,27.12,1111122 
SCCF RECON,ioos:station:SCCF:12:1,2012-09-19T09:00:00Z,26.4966,-82.1479,2.53,27.07,1111122 
SCCF RECON,ioos:station:SCCF:12:1,2012-09-19T10:00:00Z,26.4966,-82.1479,2.36,27.0,1111122 
SCCF RECON,ioos:station:SCCF:12:1,2012-09-19T11:00:00Z,26.4966,-82.1479,2.2,26.9,1111122 
SCCF RECON,ioos:station:SCCF:12:1,2012-09-19T12:00:00Z,26.4966,-82.1479,2.07,27.03,1111122 
SCCF RECON,ioos:station:SCCF:12:1,2012-09-19T13:00:00Z,26.4966,-82.1479,1.938,27.06,1111122 
SCCF RECON,ioos:station:SCCF:12:1,2012-09-19T14:00:00Z,26.4966,-82.1479,1.85,26.91,1111122 
SCCF RECON,ioos:station:SCCF:12:1,2012-09-19T15:00:00Z,26.4966,-82.1479,1.82,26.93,1111122 
SCCF RECON,ioos:station:SCCF:12:1,2012-09-19T16:00:00Z,26.4966,-82.1479,1.911,26.77,1111122 
SCCF RECON,ioos:station:SCCF:12:1,2012-09-19T17:00:00Z,26.4966,-82.1479,2.079,26.65,1111122 
SCCF RECON,ioos:station:SCCF:12:1,2012-09-19T18:00:00Z,26.4966,-82.1479,2.21,26.69,1111122 
SCCF RECON,ioos:station:SCCF:12:1,2012-09-19T19:00:00Z,26.4966,-82.1479,2.3,26.78,1111122 
SCCF RECON,ioos:station:SCCF:12:1,2012-09-19T20:00:00Z,26.4966,-82.1479,2.35,26.83,1111122 
SCCF RECON,ioos:station:SCCF:12:1,2012-09-19T21:00:00Z,26.4966,-82.1479,2.352,26.8,1111122 
SCCF RECON,ioos:station:SCCF:12:1,2012-09-19T22:00:00Z,26.4966,-82.1479,2.31,26.85,1111122 
SCCF RECON,ioos:station:SCCF:12:1,2012-09-19T23:00:00Z,26.4966,-82.1479,2.24,26.97,1111122 
SCCF RECON,ioos:station:SCCF:12:1,2012-09-20T00:00:00Z,26.4966,-82.1479,2.19,26.97,1111122 
SCCF RECON,ioos:station:SCCF:12:1,2012-09-20T01:00:00Z,26.4966,-82.1479,2.121,27.1,1111122 
SCCF RECON,ioos:station:SCCF:12:1,2012-09-20T02:00:00Z,26.4966,-82.1479,2.1,27.29,1111122 
SCCF RECON,ioos:station:SCCF:12:1,2012-09-20T03:00:00Z,26.4966,-82.1479,2.13,27.33,1111122 
SCCF RECON,ioos:station:SCCF:12:1,2012-09-20T04:00:00Z,26.4966,-82.1479,2.222,26.96,1111122 
SCCF RECON,ioos:station:SCCF:12:1,2012-09-20T05:00:00Z,26.4966,-82.1479,2.34,26.88,1111122 
SCCF RECON,ioos:station:SCCF:12:1,2012-09-20T06:00:00Z,26.4966,-82.1479,2.464,26.97,1111122 
SCCF RECON,ioos:station:SCCF:12:1,2012-09-20T07:00:00Z,26.4966,-82.1479,2.54,27.01,1111122 
SCCF RECON,ioos:station:SCCF:12:1,2012-09-20T08:00:00Z,26.4966,-82.1479,2.56,26.92,1111122 
SCCF RECON,ioos:station:SCCF:12:1,2012-09-20T09:00:00Z,26.4966,-82.1479,2.512,26.89,1111122 
SCCF RECON,ioos:station:SCCF:12:1,2012-09-20T10:00:00Z,26.4966,-82.1479,2.42,26.96,1111122 
SCCF RECON,ioos:station:SCCF:12:1,2012-09-20T11:00:00Z,26.4966,-82.1479,2.28,27.11,1111122 
SCCF RECON,ioos:station:SCCF:12:1,2012-09-20T12:00:00Z,26.4966,-82.1479,2.14,27.1,1111122 
SCCF RECON,ioos:station:SCCF:12:1,2012-09-20T13:00:00Z,26.4966,-82.1479,2.009,27.09,1111122 
SCCF RECON,ioos:station:SCCF:12:1,2012-09-20T14:00:00Z,26.4966,-82.1479,1.898,26.91,1111122 
SCCF RECON,ioos:station:SCCF:12:1,2012-09-20T15:00:00Z,26.4966,-82.1479,1.81,26.98,1111122 
SCCF RECON,ioos:station:SCCF:12:1,2012-09-20T16:00:00Z,26.4966,-82.1479,1.76,26.95,1111122 
SCCF RECON,ioos:station:SCCF:12:1,2012-09-20T17:00:00Z,26.4966,-82.1479,1.81,26.86,1111122 
SCCF RECON,ioos:station:SCCF:12:1,2012-09-20T18:00:00Z,26.4966,-82.1479,1.95,26.81,1111122 
SCCF RECON,ioos:station:SCCF:12:1,2012-09-20T19:00:00Z,26.4966,-82.1479,2.07,26.8,1111122 
SCCF RECON,ioos:station:SCCF:12:1,2012-09-20T20:00:00Z,26.4966,-82.1479,2.142,27.06,1111122 
SCCF RECON,ioos:station:SCCF:12:1,2012-09-20T21:00:00Z,26.4966,-82.1479,2.2,26.96,1111122 
SCCF RECON,ioos:station:SCCF:12:1,2012-09-20T22:00:00Z,26.4966,-82.1479,2.229,27.01,1111122 
SCCF RECON,ioos:station:SCCF:12:1,2012-09-20T23:00:00Z,26.4966,-82.1479,2.22,26.99,1111122 
SCCF RECON,ioos:station:SCCF:12:1,2012-09-21T00:00:00Z,26.4966,-82.1479,2.172,27.06,1111122 
SCCF RECON,ioos:station:SCCF:12:1,2012-09-21T01:00:00Z,26.4966,-82.1479,2.145,27.0,1111122 
SCCF RECON,ioos:station:SCCF:12:1,2012-09-21T02:00:00Z,26.4966,-82.1479,2.16,26.97,1111122 
SCCF RECON,ioos:station:SCCF:12:1,2012-09-21T03:00:00Z,26.4966,-82.1479,2.142,26.97,1111122 
SCCF RECON,ioos:station:SCCF:12:1,2012-09-21T04:00:00Z,26.4966,-82.1479,2.151,26.91,1111122 
SCCF RECON,ioos:station:SCCF:12:1,2012-09-21T05:00:00Z,26.4966,-82.1479,2.226,27.01,1111122 